Location: Newark
(49.2842°N, 3.4494°E)
Time: 19:03:02
(UTC+00:00)

Envisat - Visible Passes

Search period start: 22 September 2019 00:00
Search period end: 02 October 2019 00:00
Orbit: 764 x 766 km, 98.1° (Epoch: 22 September)

Date Brightness Start Highest point End Pass type
(mag) Time Alt. Az. Time Alt. Az. Time Alt. Az.
22 Sep 3.9 18:11:38 10° S 18:16:37 55° W 18:21:37 10° NNW visible
23 Sep 5.9 19:16:10 10° SW 19:19:25 17° W 19:22:41 10° NW visible
24 Sep 4.9 18:37:41 10° SSW 18:42:16 33° W 18:46:53 10° NNW visible
26 Sep 5.7 19:04:15 10° SW 19:08:01 21° W 19:11:49 10° NW visible
27 Sep 4.5 18:26:10 10° SSW 18:30:56 41° W 18:35:45 10° NNW visible
28 Sep 6.1 19:31:47 10° WSW 19:33:53 12° W 19:36:00 10° WNW visible
29 Sep 5.4 18:52:28 10° SSW 18:56:39 25° W 19:00:51 10° NW visible
30 Sep 4.0 18:14:41 10° S 18:19:38 51° W 18:24:35 10° NNW visible
01 Oct 6.0 19:19:28 10° SW 19:22:28 16° W 19:25:28 10° NW visible
